Weather History for KTTD - July, 2013

Change the Weather History Date:

Saturday, July 13, 2013

  Actual Average Record
Temperature  
Mean Temperature 66 °F 68 °F  
Max Temperature 83 °F 81 °F 104 °F (1961)
Min Temperature 48 °F 54 °F 43 °F (1989)
Degree Days  
Heating Degree Days 0 1  
Month to date heating degree days 5 18  
Cooling Degree Days 1 3  
Month to date cooling degree days 58 34  
Growing Degree Days 16 (Base 50)    
Moisture  
Dew Point 48 °F    
Average Humidity 58    
Maximum Humidity 86    
Minimum Humidity 30    
Precipitation  
Precipitation 0.00 in 0.03 in 0.60 in (1983)
Month to date precipitation 0.00 0.40  
Year to date precipitation 16.52 25.52  
Snow  
Snow 0.00 in - - ()
Month to date snowfall 0.0  
Since 1 June snowfall 0.0  
Snow Depth 0.00 in    
Sea Level Pressure  
Sea Level Pressure 30.09 in    
Wind  
Wind Speed 4 mph (West)    
Max Wind Speed 10 mph    
Max Gust Speed 15 mph    
Visibility 10 miles    
Events      
T = Trace of Precipitation, MM = Missing Value Source: NWS Daily Summary

Daily Weather History Graph

Daily Weather History Graph

Search for Another Location

Airport or City:

Trip Planner

Search our weather history database for the weather conditions in past years. The results will help you decide how hot, cold, wet, or windy it might be!

Date:

Astronomy

Jul. 13, 2013 Rise Set
Actual Time 5:33 AM PDT 8:56 PM PDT
Civil Twilight 4:57 AM PDT 9:33 PM PDT
Nautical Twilight 4:09 AM PDT 10:21 PM PDT
Astronomical Twilight 3:07 AM PDT 11:21 PM PDT
Moon 11:14 AM PDT (7/13) 11:19 PM PDT (7/13)
Length of Visible Light 16h 36m
Length of Day
15h 22m
Waxing Crescent, 26% of the Moon is Illuminated
Jul 13
Waxing Crescent
Jul 15
First Quarter
Jul 22
Full
Jul 29
Last Quarter
Aug 6
New

Hourly Weather History & Observations

Time (PDT) Temp. Dew Point Humidity Pressure Visibility Wind Dir Wind Speed Gust Speed Precip Events Conditions
12:53 AM 57.9 °F 46.9 °F 67% 30.11 in 10.0 mi West 4.6 mph - N/A   Clear
1:53 AM 57.0 °F 46.9 °F 69% 30.12 in 10.0 mi Variable 3.5 mph - N/A   Clear
2:53 AM 55.9 °F 46.9 °F 72% 30.12 in 10.0 mi West 4.6 mph - N/A   Clear
3:53 AM 53.1 °F 46.0 °F 77% 30.13 in 10.0 mi Calm Calm - N/A   Clear
4:53 AM 52.0 °F 46.9 °F 83% 30.14 in 10.0 mi Calm Calm - N/A   Clear
5:53 AM 50.0 °F 46.0 °F 86% 30.15 in 10.0 mi Calm Calm - N/A   Clear
6:53 AM 54.0 °F 48.0 °F 80% 30.17 in 10.0 mi Calm Calm - N/A   Clear
7:53 AM 55.9 °F 48.0 °F 75% 30.16 in 10.0 mi Calm Calm - N/A   Clear
8:53 AM 59.0 °F 48.9 °F 69% 30.16 in 10.0 mi Calm Calm - N/A   Clear
9:53 AM 63.0 °F 50.0 °F 63% 30.16 in 10.0 mi Variable 4.6 mph - N/A   Clear
10:53 AM 64.9 °F 50.0 °F 58% 30.14 in 10.0 mi West 5.8 mph - N/A   Clear
11:53 AM 69.1 °F 50.0 °F 51% 30.12 in 10.0 mi West 5.8 mph - N/A   Clear
12:53 PM 73.0 °F 48.0 °F 41% 30.10 in 10.0 mi Variable 4.6 mph - N/A   Clear
1:53 PM 77.0 °F 46.9 °F 34% 30.08 in 10.0 mi Variable 5.8 mph - N/A   Clear
2:53 PM 78.1 °F 48.0 °F 35% 30.06 in 10.0 mi WNW 6.9 mph - N/A   Clear
3:53 PM 81.0 °F 48.9 °F 33% 30.04 in 10.0 mi Variable 5.8 mph - N/A   Clear
4:53 PM 82.0 °F 48.0 °F 30% 30.02 in 10.0 mi NW 8.1 mph - N/A   Clear
5:53 PM 81.0 °F 46.9 °F 30% 30.02 in 10.0 mi NW 6.9 mph - N/A   Clear
6:53 PM 79.0 °F 48.0 °F 34% 30.01 in 10.0 mi Variable 4.6 mph - N/A   Clear
7:53 PM 78.1 °F 46.9 °F 33% 30.00 in 10.0 mi Variable 4.6 mph - N/A   Clear
8:53 PM 73.0 °F 46.9 °F 39% 30.00 in 10.0 mi Variable 5.8 mph - N/A   Clear
9:53 PM 72.0 °F 46.0 °F 40% 30.02 in 10.0 mi Variable 4.6 mph - N/A   Clear
10:53 PM 66.0 °F 50.0 °F 56% 30.04 in 10.0 mi WSW 4.6 mph - N/A   Clear
11:53 PM 64.9 °F 51.1 °F 61% 30.05 in 10.0 mi West 4.6 mph - N/A   Clear